Weather History for Amsterdam Airport Schiphol, Netherlands

Change the Weather History Date:

Saturday, November 2, 2013

  Actual Average Record
Temperature  
Mean Temperature 51 °F -  
Max Temperature 55 °F 48 °F - ()
Min Temperature 47 °F 39 °F - ()
Degree Days  
Heating Degree Days 14    
Growing Degree Days 1 (Base 50)    
Moisture  
Dew Point 49 °F    
Average Humidity 93    
Maximum Humidity 100    
Minimum Humidity 77    
Precipitation  
Precipitation 0.02 in - - ()
Sea Level Pressure  
Sea Level Pressure 29.51 in    
Wind  
Wind Speed 9 mph ()    
Max Wind Speed 22 mph    
Max Gust Speed -    
Visibility 5.5 miles    
Events Rain    
T = Trace of Precipitation, MM = Missing Value Source: Averaged Metar Reports

Daily Weather History Graph

Daily Weather History Graph

Search for Another Location

Airport:

Trip Planner

Search our weather history database for the weather conditions in past years. The results will help you decide how hot, cold, wet, or windy it might be!

Date:

Astronomy

Nov. 02, 2013 Rise Set
Actual Time 7:38 AM CET 5:09 PM CET
Civil Twilight 7:02 AM CET 5:45 PM CET
Nautical Twilight 6:22 AM CET 6:25 PM CET
Astronomical Twilight 5:42 AM CET 7:05 PM CET
Moon 6:11 AM CET (11/2) 4:34 PM CET (11/2)
Length of Visible Light 10h 43m
Length of Day
9h 31m
Waning Crescent, 2% of the Moon is Illuminated
Nov 2
Waning Crescent
Nov 3
New
Nov 10
First Quarter
Nov 17
Full
Nov 25
Last Quarter

Hourly Weather History & Observations

Time (CET) Temp. Dew Point Humidity Pressure Visibility Wind Dir Wind Speed Gust Speed Precip Events Conditions
12:25 AM 50.0 °F 48.2 °F 94% 29.65 in 6.2 mi South 13.8 mph - N/A   Overcast
12:55 AM 50.0 °F 46.4 °F 87% 29.62 in 6.2 mi SSE 11.5 mph - N/A   Mostly Cloudy
1:00 AM 49 °F 47 °F 90% 29.64 in 11 mi South 13.4 mph - -   Partly Cloudy
1:25 AM 50.0 °F 46.4 °F 87% 29.62 in 6.2 mi SSE 11.5 mph - N/A   Mostly Cloudy
1:55 AM 50.0 °F 46.4 °F 87% 29.59 in 6.2 mi SSE 9.2 mph - N/A Rain Light Rain
2:25 AM 48.2 °F 46.4 °F 93% 29.59 in 5.0 mi SSE 10.4 mph - N/A Rain Rain
2:55 AM 48.2 °F 46.4 °F 93% 29.56 in 5.0 mi SSE 10.4 mph - N/A Rain Rain
3:25 AM 48.2 °F 46.4 °F 93% 29.53 in 5.0 mi SE 9.2 mph - N/A Rain Rain
3:55 AM 48.2 °F 46.4 °F 93% 29.53 in 4.3 mi SE 8.1 mph - N/A Rain Rain
4:25 AM 48.2 °F 46.4 °F 93% 29.50 in 4.3 mi ESE 5.8 mph - N/A Rain Rain
4:55 AM 48.2 °F 46.4 °F 93% 29.50 in 4.3 mi SE 5.8 mph - N/A Rain Rain
5:25 AM 48.2 °F 48.2 °F 100% 29.50 in 6.2 mi SE 3.5 mph - N/A   Mostly Cloudy
5:55 AM 48.2 °F 48.2 °F 100% 29.50 in 6.2 mi SSE 4.6 mph - N/A   Overcast
6:25 AM 48.2 °F 48.2 °F 100% 29.50 in 4.3 mi South 4.6 mph - N/A   Overcast
6:55 AM 48.2 °F 48.2 °F 100% 29.50 in 1.9 mi SSW 4.6 mph - N/A   Light Drizzle
7:00 AM 48 °F 48 °F 100% 29.52 in 1 mi SSW 4.5 mph - - Rain Drizzle
7:25 AM 48.2 °F 48.2 °F 100% 29.50 in 1.9 mi SSW 5.8 mph - N/A   Mostly Cloudy
7:55 AM 48.2 °F 48.2 °F 100% 29.50 in - SW 4.6 mph - N/A   Mostly Cloudy
8:25 AM 48.2 °F 48.2 °F 100% 29.50 in - SSW 4.6 mph - N/A   Mostly Cloudy
8:55 AM 50.0 °F 50.0 °F 100% 29.50 in 2.8 mi Variable 3.5 mph - N/A   Mostly Cloudy
9:25 AM 50.0 °F 50.0 °F 100% 29.53 in 3.1 mi South 3.5 mph - N/A   Mostly Cloudy
9:55 AM 50.0 °F 50.0 °F 100% 29.53 in 3.7 mi South 3.5 mph - N/A   Mostly Cloudy
10:00 AM 50 °F 49 °F 97% 29.55 in 4 mi South 4.5 mph - -   Mist
10:25 AM 50.0 °F 50.0 °F 100% 29.53 in 3.7 mi South 6.9 mph - N/A   Mostly Cloudy
10:55 AM 51.8 °F 50.0 °F 94% 29.53 in 4.3 mi South 5.8 mph - N/A   Mostly Cloudy
11:25 AM 51.8 °F 50.0 °F 94% 29.53 in 4.3 mi South 6.9 mph - N/A   Mostly Cloudy
11:55 AM 51.8 °F 50.0 °F 94% 29.53 in 4.3 mi South 5.8 mph - N/A   Mostly Cloudy
12:25 PM 51.8 °F 50.0 °F 94% 29.53 in 4.3 mi South 5.8 mph - N/A   Mostly Cloudy
12:55 PM 51.8 °F 50.0 °F 94% 29.53 in 5.6 mi SSW 9.2 mph - N/A   Mostly Cloudy
1:00 PM 52 °F 51 °F 93% 29.55 in 8 mi SSW 8.9 mph - -   Partly Cloudy
1:25 PM 51.8 °F 50.0 °F 94% 29.53 in 6.2 mi South 8.1 mph - N/A   Mostly Cloudy
1:55 PM 51.8 °F 51.8 °F 100% 29.53 in 6.2 mi SSW 10.4 mph - N/A   Mostly Cloudy
2:25 PM 51.8 °F 51.8 °F 100% 29.53 in 6.2 mi SSW 10.4 mph - N/A   Mostly Cloudy
2:55 PM 53.6 °F 51.8 °F 94% 29.50 in 6.2 mi South 9.2 mph - N/A   Mostly Cloudy
3:25 PM 53.6 °F 51.8 °F 94% 29.50 in 6.2 mi SSW 11.5 mph - N/A   Mostly Cloudy
3:55 PM 53.6 °F 51.8 °F 94% 29.50 in 6.2 mi SSW 11.5 mph - N/A   Mostly Cloudy
4:00 PM 54 °F 52 °F 90%  in 9 mi SSW 11.2 mph - -   Partly Cloudy
4:25 PM 53.6 °F 51.8 °F 94% 29.50 in 2.5 mi SSW 13.8 mph - N/A   Drizzle
4:55 PM 53.6 °F 51.8 °F 94% 29.50 in 6.2 mi SSW 11.5 mph - N/A   Mostly Cloudy
5:25 PM 53.6 °F 51.8 °F 94% 29.50 in 5.6 mi SSW 12.7 mph - N/A   Scattered Clouds
5:55 PM 53.6 °F 51.8 °F 94% 29.50 in 6.2 mi South 13.8 mph - N/A   Mostly Cloudy
6:25 PM 53.6 °F 51.8 °F 94% 29.50 in 6.2 mi South 13.8 mph - N/A Rain Light Rain
6:55 PM 53.6 °F 51.8 °F 94% 29.47 in 6.2 mi South 15.0 mph - N/A   Mostly Cloudy
7:00 PM 53 °F 52 °F 94% 29.49 in 6 mi South 15.7 mph - - Rain Rain
7:25 PM 53.6 °F 51.8 °F 94% 29.47 in 6.2 mi South 16.1 mph - N/A   Partly Cloudy
7:55 PM 53.6 °F 51.8 °F 94% 29.44 in 6.2 mi South 17.3 mph - N/A Rain Light Rain
8:25 PM 53.6 °F 51.8 °F 94% 29.44 in 6.2 mi South 17.3 mph - N/A Rain Light Rain
8:55 PM 55.4 °F 50.0 °F 82% 29.44 in 6.2 mi SSW 21.9 mph - N/A   Partly Cloudy
9:25 PM 53.6 °F 46.4 °F 77% 29.44 in 6.2 mi SSW 20.7 mph - N/A Rain Light Rain
9:55 PM 51.8 °F 46.4 °F 82% 29.44 in 6.2 mi SSW 18.4 mph - N/A   Partly Cloudy
10:00 PM 52 °F 47 °F 78% 29.45 in 10 mi SSW 17.9 mph - - Rain Rain
10:25 PM 51.8 °F 48.2 °F 88% 29.44 in 6.2 mi SSW 16.1 mph - N/A   Scattered Clouds
10:55 PM 51.8 °F 48.2 °F 88% 29.42 in 6.2 mi SSW 18.4 mph - N/A   Partly Cloudy
11:25 PM 51.8 °F 48.2 °F 88% 29.42 in 6.2 mi SSW 17.3 mph - N/A   Partly Cloudy
11:55 PM 51.8 °F 46.4 °F 82% 29.39 in 6.2 mi SSW 19.6 mph - N/A   Partly Cloudy